Location: Saint André
(43.5594°N, 1.3519°W)
Time: 02:37:55
(UTC+00:00)

ARIANE 6 FM1 Upper Stage - Visible Passes

Search period start: 18 February 2026 00:00
Search period end: 28 February 2026 00:00
Orbit: 522 x 608 km, 62.0° (Epoch: 17 February)

Date Brightness Start Highest point End Pass type
(mag) Time Alt. Az. Time Alt. Az. Time Alt. Az.
18 Feb 3.1 19:18:14 10° NW 19:22:07 55° SW 19:24:37 20° SSE visible
19 Feb 4.0 19:18:21 10° NW 19:22:00 36° WSW 19:25:40 10° S visible
20 Feb 4.8 19:18:35 10° WNW 19:21:50 24° WSW 19:25:06 10° S visible
21 Feb 5.4 19:19:05 10° WNW 19:21:38 17° WSW 19:24:13 10° SSW visible
22 Feb 5.8 19:20:15 10° W 19:21:24 11° WSW 19:22:32 10° SW visible
